Latest Weather Observations for Port Augusta

IDS60801

Issued at 6:05 pm CDT Monday 24 November 2014 (issued every 30 minutes, with the page automatically refreshed every 10 minutes)

About weather observations | Map of weather stations | Latest weather observations for SA | Other Formats
Station Details ID: 018201 Name: PORT AUGUSTA AERO Lat: -32.51 Lon: 137.72 Height: 13.97 m
Data from the previous 72 hours. | See also: Recent months at Port Augusta
Date/Time
CDT
Temp
°C
App
Temp
°C
Dew
Point
Rel
Hum
%
Delta-T
°C
Wind Press
QNH
hPa
Press
MSL
hPa
Rain
since 9 am
mm
Dir
 
Spd
km/h
Gust
km/h
Spd
kts
Gust
kts
24/06:00pm 21.1 11.9 9.4 47 6.2 SSE 48 63 26 34 1014.7 1014.7 0.0
24/05:38pm 21.2 12.5 9.8 48 6.1 SSE 46 65 25 35 1014.4 - 0.0
24/05:30pm 21.6 12.5 9.8 47 6.4 SSE 48 59 26 32 1014.3 - 0.0
24/05:14pm 21.6 13.3 10.1 48 6.2 S 44 69 24 37 1014.1 - 0.0
24/05:00pm 22.4 14.5 10.9 48 6.4 S 43 57 23 31 1014.1 - 0.0
24/04:30pm 22.7 14.0 11.4 49 6.3 SSE 48 63 26 34 1013.7 - 0.0
24/04:00pm 24.4 16.8 11.7 45 7.2 SSE 43 54 23 29 1013.7 - 0.0
24/03:38pm 25.5 18.5 12.4 44 7.5 S 41 57 22 31 1013.5 - 0.0
24/03:30pm 24.5 17.5 12.5 47 6.9 SE 41 54 22 29 1013.3 - 0.0
24/03:02pm 24.0 17.1 12.9 50 6.4 SE 41 59 22 32 1013.3 - 0.0
24/03:00pm 24.8 18.3 13.0 47 6.8 SE 39 54 21 29 1013.4 1013.4 0.0
24/02:30pm 24.7 19.7 13.9 51 6.4 SE 33 48 18 26 1013.9 - 0.0
24/02:01pm 25.0 19.5 13.5 48 6.7 SE 35 54 19 29 1014.1 - 0.0
24/02:00pm 24.5 18.4 13.1 49 6.6 SE 37 54 20 29 1014.1 - 0.0
24/01:34pm 25.6 19.9 11.7 42 7.9 SE 33 59 18 32 1013.6 - 0.0
24/01:30pm 24.8 18.8 12.1 45 7.3 SE 35 48 19 26 1013.8 - 0.0
24/01:19pm 25.1 18.6 11.6 42 7.7 SE 37 50 20 27 1014.0 - 0.0
24/01:00pm 24.1 18.0 9.7 40 7.9 S 32 46 17 25 1014.1 - 0.0
24/12:55pm 26.0 19.9 10.6 38 8.6 S 33 46 18 25 1014.2 - 0.0
24/12:30pm 25.3 18.4 10.4 39 8.3 SSE 37 50 20 27 1014.0 - 0.0
24/12:16pm 24.2 18.4 10.8 43 7.5 SSE 32 52 17 28 1014.4 - 0.0
24/12:00pm 24.2 17.6 11.2 44 7.3 S 37 48 20 26 1013.7 1013.7 0.0
24/11:30am 23.6 17.7 10.3 43 7.3 SSE 32 48 17 26 1014.0 - 0.0
24/11:28am 24.1 18.6 10.4 42 7.6 S 30 48 16 26 1014.2 - 0.0
24/11:00am 23.5 15.7 9.9 42 7.4 SSE 41 50 22 27 1014.0 - 0.0
24/10:30am 23.0 15.6 11.1 47 6.6 SSE 41 54 22 29 1013.4 - 0.0
24/10:00am 23.0 15.8 10.4 45 6.9 S 39 54 21 29 1013.1 - 0.0
24/09:30am 21.9 14.8 11.0 50 6.0 S 39 52 21 28 1013.0 - 0.0
24/09:00am 21.8 14.8 11.2 51 5.9 SSE 39 50 21 27 1012.8 1012.8 0.8
24/08:30am 20.8 14.3 11.7 56 5.1 S 37 52 20 28 1012.6 - 0.8
24/08:00am 20.7 14.4 12.4 59 4.7 SSE 37 46 20 25 1012.1 - 0.8
24/07:30am 19.6 14.4 13.5 68 3.5 S 33 46 18 25 1012.0 - 0.8
24/07:00am 19.1 15.2 13.3 69 3.3 S 26 35 14 19 1011.7 - 0.8
24/06:30am 19.0 16.9 14.7 76 2.5 SSE 19 26 10 14 1011.1 - 0.8
24/06:00am 19.1 15.7 14.8 76 2.5 SSE 26 37 14 20 1009.9 1009.9 0.8
24/05:30am 19.5 16.1 14.7 74 2.8 SSE 26 32 14 17 1008.7 - 0.8
24/05:00am 20.6 18.4 16.8 79 2.3 ESE 24 32 13 17 1007.5 - 0.8
24/04:30am 20.9 19.7 17.1 79 2.3 SE 19 24 10 13 1006.7 - 0.8
24/04:00am 21.6 21.5 14.0 62 4.4 N 7 15 4 8 1006.3 - 0.8
24/03:30am 22.4 22.2 13.7 58 5.1 W 7 11 4 6 1005.7 - 0.8
24/03:00am 22.8 21.5 13.8 57 5.3 WSW 13 15 7 8 1005.6 1005.6 0.8
24/02:30am 23.4 22.1 13.6 54 5.7 WNW 13 15 7 8 1005.4 - 0.8
24/02:00am 24.3 23.3 13.5 51 6.3 WNW 11 15 6 8 1005.4 - 0.8
24/01:30am 25.0 23.9 13.2 48 6.9 WNW 11 15 6 8 1005.9 - 0.8
24/01:00am 26.4 24.4 12.8 43 7.9 WNW 15 24 8 13 1006.6 - 0.8
24/12:30am 26.2 23.5 13.0 44 7.7 WSW 19 28 10 15 1007.0 - 0.8
24/12:00am 24.1 23.3 13.9 53 6.0 SW 11 19 6 10 1007.2 1007.2 0.8
 
Date/Time
CDT
Temp
°C
App
Temp
°C
Dew
Point
Rel
Hum
%
Delta-T
°C
Wind Press
QNH
hPa
Press
MSL
hPa
Rain
since 9 am
mm
Dir
 
Spd
km/h
Gust
km/h
Spd
kts
Gust
kts
23/11:30pm 23.8 23.4 14.2 55 5.7 SW 9 11 5 6 1007.7 - 0.8
23/11:00pm 24.2 24.1 14.0 53 6.0 S 7 11 4 6 1008.0 - 0.8
23/10:30pm 24.6 24.6 14.1 52 6.2 ESE 7 13 4 7 1008.1 - 0.8
23/10:00pm 24.9 23.9 14.7 53 6.1 E 13 20 7 11 1008.2 - 0.8
23/09:30pm 26.9 25.6 13.6 44 7.9 SE 13 19 7 10 1007.8 - 0.8
23/09:00pm 26.2 23.9 14.0 47 7.3 SSE 19 22 10 12 1007.7 1007.7 0.8
23/08:30pm 25.5 22.7 14.3 50 6.7 SSE 22 28 12 15 1007.2 - 0.8
23/08:00pm 27.8 28.0 15.8 48 7.4 ESE 9 11 5 6 1006.7 - 0.8
23/07:30pm 30.7 29.3 12.1 32 10.9 SW 11 15 6 8 1006.1 - 0.8
23/07:00pm 31.5 30.1 13.3 33 10.9 SW 13 19 7 10 1005.4 - 0.8
23/06:30pm 32.5 31.3 12.7 30 11.8 W 11 15 6 8 1005.3 - 0.6
23/06:00pm 31.7 30.8 12.5 31 11.4 W 9 17 5 9 1005.4 1005.4 0.6
23/05:30pm 30.8 30.4 14.0 36 10.2 NE 9 17 5 9 1005.0 - 0.6
23/05:00pm 30.7 28.5 14.8 38 9.7 NNE 20 30 11 16 1005.4 - 0.6
23/04:57pm 30.9 28.9 14.9 37 9.8 NNE 19 30 10 16 1005.5 - 0.6
23/04:30pm 25.9 23.6 16.7 57 5.7 ENE 24 35 13 19 1005.8 - 0.6
23/04:27pm 26.0 24.4 16.5 55 5.9 E 20 35 11 19 1005.9 - 0.6
23/04:00pm 26.9 25.6 16.8 54 6.3 ENE 19 22 10 12 1008.0 - 0.6
23/03:30pm 28.9 26.8 13.6 39 9.1 W 17 32 9 17 1009.1 - 0.6
23/03:00pm 28.9 26.1 14.3 40 8.8 N 22 30 12 16 1010.3 1010.3 0.6
23/02:30pm 24.3 22.7 17.5 66 4.2 ENE 22 26 12 14 1009.4 - 0.6
23/02:29pm 24.4 23.1 18.1 68 4.0 ENE 22 26 12 14 1009.5 - 0.2
23/02:00pm 29.2 25.3 12.2 35 9.9 WNW 24 32 13 17 1011.5 - 0.0
23/01:30pm 29.0 24.3 7.6 26 11.6 W 22 32 12 17 1011.9 - 0.0
23/01:00pm 28.6 25.4 8.3 28 11.1 W 15 22 8 12 1012.0 - 0.0
23/12:30pm 29.7 25.2 7.0 24 12.2 W 20 28 11 15 1012.0 - 0.0
23/12:00pm 28.6 25.0 8.3 28 11.1 ESE 17 22 9 12 1010.5 1010.5 0.0
23/11:30am 29.7 28.2 7.0 24 12.2 ESE 4 9 2 5 1011.6 - 0.0
23/11:00am 29.2 26.6 7.7 26 11.7 SE 11 15 6 8 1010.7 - 0.0
23/10:30am 28.3 26.5 9.6 31 10.4 SE 9 17 5 9 1011.0 - 0.0
23/10:00am 25.8 23.9 11.9 42 8.0 SE 13 20 7 11 1011.2 - 0.0
23/09:30am 23.5 20.9 11.9 48 6.6 ESE 17 22 9 12 1011.5 - 0.0
23/09:00am 22.9 19.8 11.6 49 6.3 ESE 19 22 10 12 1011.9 1011.9 0.0
23/08:30am 21.1 18.0 13.5 62 4.4 ESE 22 26 12 14 1011.9 - 0.0
23/08:00am 19.9 16.9 13.6 67 3.6 SE 22 28 12 15 1011.7 - 0.0
23/07:30am 19.2 16.2 13.6 70 3.2 SE 22 32 12 17 1011.5 - 0.0
23/07:00am 18.8 14.9 13.2 70 3.2 SSE 26 35 14 19 1011.4 - 0.0
23/06:30am 17.8 13.7 12.7 72 2.8 SSE 26 33 14 18 1010.9 - 0.0
23/06:00am 18.0 13.7 12.2 69 3.2 SSE 26 33 14 18 1010.8 1010.8 0.0
23/05:30am 17.9 13.6 11.9 68 3.3 SSE 26 33 14 18 1010.5 - 0.0
23/05:00am 18.1 14.0 11.4 65 3.7 SSE 24 37 13 20 1010.4 - 0.0
23/04:30am 18.4 14.2 11.2 63 3.9 S 24 32 13 17 1011.0 - 0.0
23/04:00am 18.6 14.1 11.4 63 3.9 S 26 35 14 19 1010.9 - 0.0
23/03:30am 18.5 14.7 13.6 73 2.8 S 26 35 14 19 1011.2 - 0.0
23/03:00am 18.8 14.2 13.4 71 3.1 S 30 41 16 22 1010.9 1010.9 0.0
23/02:30am 19.1 15.4 13.9 72 3.0 S 26 32 14 17 1011.6 - 0.0
23/02:00am 19.5 16.2 14.1 71 3.1 SSE 24 33 13 18 1011.9 - 0.0
23/01:30am 19.9 16.2 13.8 68 3.5 S 26 32 14 17 1011.5 - 0.0
23/01:00am 20.2 16.3 13.4 65 3.9 S 26 33 14 18 1011.5 - 0.0
23/12:30am 20.8 16.4 12.8 60 4.5 S 28 35 15 19 1011.5 - 0.0
23/12:00am 20.5 16.8 11.4 56 5.0 SSW 22 30 12 16 1011.5 1011.5 0.0
 
Date/Time
CDT
Temp
°C
App
Temp
°C
Dew
Point
Rel
Hum
%
Delta-T
°C
Wind Press
QNH
hPa
Press
MSL
hPa
Rain
since 9 am
mm
Dir
 
Spd
km/h
Gust
km/h
Spd
kts
Gust
kts
22/11:30pm 21.3 16.6 10.8 51 5.8 SSW 26 35 14 19 1011.5 - 0.0
22/11:00pm 22.1 16.8 9.9 46 6.6 SSW 28 41 15 22 1011.1 - 0.0
22/10:30pm 23.5 17.2 9.1 40 7.8 S 32 41 17 22 1010.6 - 0.0
22/10:00pm 23.8 16.8 10.1 42 7.5 S 37 48 20 26 1010.3 - 0.0
22/09:30pm 23.9 16.9 11.2 44 7.1 S 39 50 21 27 1009.8 - 0.0
22/09:00pm 24.1 18.5 12.1 47 6.8 SSE 33 44 18 24 1009.0 1009.0 0.0
22/08:30pm 25.0 18.4 12.6 46 7.1 SSE 39 54 21 29 1008.1 - 0.0
22/08:17pm 25.5 19.6 12.4 44 7.5 SSE 35 57 19 31 1007.8 - 0.0
22/08:00pm 25.9 19.2 12.4 43 7.8 SSE 39 50 21 27 1007.4 - 0.0
22/07:30pm 25.4 19.3 14.2 50 6.6 SSE 39 52 21 28 1006.7 - 0.0
22/07:00pm 26.0 20.5 15.7 53 6.3 SSE 39 57 21 31 1006.3 - 0.0
22/06:52pm 26.3 20.7 15.4 51 6.6 SSE 39 57 21 31 1005.9 - 0.0
22/06:30pm 28.3 21.2 13.4 40 8.8 SSE 43 59 23 32 1005.5 - 0.0
22/06:24pm 29.2 22.5 13.4 38 9.4 SSE 41 59 22 32 1005.4 - 0.0
22/06:00pm 31.2 23.5 11.6 30 11.5 SSE 43 57 23 31 1004.9 1004.9 0.0
22/05:30pm 31.8 24.2 10.5 27 12.2 SSE 41 52 22 28 1004.6 - 0.0
22/05:00pm 33.2 25.8 9.9 24 13.3 S 39 56 21 30 1004.1 - 0.0
22/04:54pm 33.6 25.5 10.2 24 13.5 S 43 61 23 33 1004.3 - 0.0
22/04:30pm 33.4 26.0 12.4 28 12.5 SSE 43 54 23 29 1003.5 - 0.0
22/04:08pm 34.3 27.9 9.5 22 14.2 SE 33 57 18 31 1002.9 - 0.0
22/04:00pm 32.7 27.5 13.4 31 11.6 SE 33 46 18 25 1002.8 - 0.0
22/03:30pm 35.7 30.2 12.0 24 14.2 SE 32 48 17 26 1002.3 - 0.0
22/03:23pm 37.6 33.0 12.3 22 15.3 SE 28 46 15 25 1002.3 - 0.0
22/03:02pm 36.9 33.6 11.0 21 15.3 ESE 19 37 10 20 1002.9 - 0.0
22/03:00pm 42.8 38.9 8.5 13 20.1 NNW 19 41 10 22 1002.8 1002.8 0.0
22/02:45pm 41.8 36.5 9.9 15 18.9 WNW 28 46 15 25 1002.9 - 0.0
22/02:30pm 41.9 36.2 9.9 15 19.0 WNW 30 50 16 27 1003.1 - 0.0
22/02:04pm 41.7 35.0 9.8 15 18.9 NNW 35 54 19 29 1003.2 - 0.0
22/02:00pm 40.9 34.3 10.1 16 18.3 NNW 35 48 19 26 1003.3 - 0.0
22/01:33pm 41.0 34.5 10.2 16 18.3 N 35 54 19 29 1003.5 - 0.0
22/01:30pm 40.4 32.6 9.7 16 18.1 N 41 56 22 30 1003.6 - 0.0
22/01:25pm 40.7 34.0 10.9 17 17.9 NNW 37 56 20 30 1003.6 - 0.0
22/01:00pm 39.9 32.5 11.1 18 17.3 N 41 56 22 30 1003.8 - 0.0
22/12:42pm 38.9 31.3 11.9 20 16.3 N 43 61 23 33 1004.1 - 0.0
22/12:30pm 38.8 31.4 12.5 21 16.0 N 43 56 23 30 1004.2 - 0.0
22/12:00pm 37.7 30.3 12.3 22 15.4 N 43 61 23 33 1004.7 1004.7 0.0
22/11:57am 37.2 30.4 11.9 22 15.2 N 39 57 21 31 1004.7 - 0.0
22/11:30am 36.2 29.0 11.8 23 14.6 N 41 54 22 29 1005.1 - 0.0
22/11:00am 36.9 30.8 13.0 24 14.6 N 37 48 20 26 1005.3 - 0.0
22/10:30am 35.2 28.7 12.8 26 13.5 N 39 48 21 26 1005.7 - 0.0
22/10:18am 35.2 28.9 12.2 25 13.8 N 37 48 20 26 1005.6 - 0.0
22/10:00am 34.5 31.4 13.3 27 12.9 N 22 30 12 16 1005.6 - 0.0
22/09:30am 31.6 27.4 13.4 33 10.9 N 28 39 15 21 1005.8 - 0.0
22/09:00am 30.4 27.3 14.5 38 9.7 N 24 33 13 18 1006.1 1006.1 0.0
22/08:30am 27.0 23.3 15.1 48 7.2 N 28 35 15 19 1006.7 - 0.0
22/08:00am 26.8 24.2 13.9 45 7.7 N 20 24 11 13 1006.6 - 0.0
22/07:30am 22.2 22.2 9.7 45 6.8 CALM 0 6 0 3 1006.9 - 0.0
22/07:00am 21.2 19.5 9.8 48 6.1 NNW 9 13 5 7 1006.9 - 0.0
22/06:30am 20.2 19.2 11.1 56 5.0 WSW 7 11 4 6 1006.0 - 0.0
22/06:00am 20.0 18.5 8.4 47 6.1 NW 6 9 3 5 1005.9 1005.9 0.0
22/05:30am 19.8 18.0 9.4 51 5.5 W 9 11 5 6 1005.5 - 0.0
22/05:00am 19.7 17.9 9.3 51 5.5 WSW 9 9 5 5 1005.2 - 0.0
22/04:30am 19.3 16.6 10.3 56 4.8 SW 15 17 8 9 1004.8 - 0.0
22/04:00am 19.5 17.1 10.2 55 5.0 WSW 13 15 7 8 1005.1 - 0.0
22/03:30am 18.5 17.2 11.1 62 4.0 SW 9 13 5 7 1005.3 - 0.0
22/03:00am 18.2 17.1 10.6 61 4.1 SW 7 9 4 5 1005.8 1005.8 0.0
22/02:30am 18.6 17.5 9.9 57 4.6 WNW 6 7 3 4 1006.4 - 0.0
22/02:00am 18.1 18.0 9.5 57 4.5 CALM 0 6 0 3 1006.9 - 0.0
22/01:30am 19.2 19.3 10.2 56 4.8 CALM 0 0 0 0 1007.5 - 0.0
22/01:00am 19.4 18.7 10.1 55 5.0 S 4 7 2 4 1008.1 - 0.0
22/12:30am 20.1 20.1 12.3 61 4.4 SE 4 9 2 5 1008.3 - 0.0
22/12:00am 20.2 19.7 12.7 62 4.2 SE 7 11 4 6 1008.7 1008.7 0.0
 
Date/Time
CDT
Temp
°C
App
Temp
°C
Dew
Point
Rel
Hum
%
Delta-T
°C
Wind Press
QNH
hPa
Press
MSL
hPa
Rain
since 9 am
mm
Dir
 
Spd
km/h
Gust
km/h
Spd
kts
Gust
kts
21/11:30pm 20.8 19.7 13.0 61 4.4 ESE 11 13 6 7 1009.0 - 0.0
21/11:00pm 22.0 19.7 11.7 52 5.8 ESE 15 19 8 10 1009.2 - 0.0
21/10:30pm 21.2 18.6 10.7 51 5.7 ESE 15 19 8 10 1009.4 - 0.0
21/10:00pm 24.5 21.1 7.6 34 8.9 SE 15 20 8 11 1009.2 - 0.0
21/09:30pm 24.8 21.3 7.4 33 9.2 SE 15 19 8 10 1009.2 - 0.0
21/09:00pm 25.3 21.0 7.0 31 9.6 SE 19 24 10 13 1009.0 1009.0 0.0
21/08:30pm 25.1 21.1 4.8 27 10.2 SE 15 20 8 11 1009.0 - 0.0
21/08:00pm 25.8 21.2 3.7 24 10.9 SE 17 24 9 13 1008.9 - 0.0
21/07:30pm 26.9 22.3 5.8 26 10.9 SE 19 26 10 14 1008.9 - 0.0
21/07:00pm 27.5 22.7 4.5 23 11.7 SE 19 24 10 13 1008.7 - 0.0
21/06:30pm 29.8 25.2 3.7 19 13.3 SE 17 24 9 13 1008.7 - 0.0

Other Formats:

Comma delimited format used in spreadsheet applications
http://www.bom.gov.au/fwo/IDS60801/IDS60801.95666.axf

JavaScript Object Notation format (JSON) in row-major order
http://www.bom.gov.au/fwo/IDS60801/IDS60801.95666.json